Theta_e
322 321 320 320 321 321 321 321 321 321 322 321 321 321 322 322 322 322 323 323 323 324 323 324 325 325 325 326 327 327 324 315 312 307 300 300 315 331 336 332 335 336 328 304 302 302 300 297 301 297 301 299 301 301 300 302 299 298 291 286 287 284 286 288 288 289 289 292 292 292 292 292 292 294 298 297 296 293 294 297 296 306 310 312 312 310 316 321
321 320 319 320 321 321 321 321 320 321 321 321 321 321 322 322 322 322 323 323 323 323 324 323 324 325 325 325 326 325 316 313 307 301 299 317 335 334 335 336 332 333 317 302 299 297 298 298 297 296 299 300 300 301 302 300 299 290 287 286 289 285 291 292 289 290 292 293 293 293 290 293 293 294 296 294 293 295 296 296 296 304 307 312 313 316 320 321
320 318 319 320 320 320 320 321 321 321 320 320 321 321 321 321 321 321 322 322 323 322 323 324 324 325 325 325 325 324 313 304 301 299 301 331 331 336 334 335 333 332 309 304 297 298 299 297 297 296 295 296 295 299 298 298 299 293 292 289 286 290 291 290 291 291 292 292 293 292 292 292 293 294 295 295 291 292 293 294 296 300 301 307 312 315 319 321
319 318 319 319 319 319 320 320 320 320 320 320 320 320 320 320 321 321 322 322 322 323 323 323 324 324 324 325 326 317 305 300 295 296 310 330 332 335 336 333 332 323 309 305 299 300 297 296 295 296 295 291 291 296 296 297 297 294 290 284 292 290 292 294 290 291 291 291 292 291 290 292 293 293 294 290 293 292 292 292 297 298 301 310 313 315 318 319
319 319 319 318 318 319 320 320 319 320 320 320 320 320 320 320 320 320 321 321 322 323 323 322 324 324 324 324 324 312 299 292 293 304 313 332 332 331 333 334 332 314 312 308 301 298 298 296 296 294 294 292 293 293 292 295 293 290 293 290 291 290 293 294 291 292 290 289 292 289 293 292 293 294 290 294 291 291 295 297 296 298 307 313 314 316 317 318
319 319 318 318 318 320 319 319 319 320 320 319 319 319 319 319 319 319 320 321 321 322 322 323 323 324 324 323 312 306 297 286 298 308 322 331 331 334 333 332 329 304 302 301 300 298 300 297 297 296 292 293 293 292 292 293 294 294 291 290 288 289 294 292 292 291 289 291 290 290 292 293 293 293 289 292 293 292 292 293 297 296 313 316 317 317 316 317
319 319 318 317 319 318 318 319 319 320 320 319 318 318 318 318 319 319 320 320 321 321 322 323 323 323 323 318 309 302 296 294 308 311 328 330 334 332 334 331 322 304 303 301 300 300 294 294 294 292 290 289 290 290 293 295 289 288 292 290 293 290 293 291 293 288 288 291 290 291 292 293 291 294 291 290 292 291 291 291 292 297 313 316 316 316 317 318
319 319 318 318 319 317 318 319 319 319 319 318 317 317 318 318 318 319 319 320 320 321 322 322 323 323 322 310 302 296 298 297 305 313 322 330 313 318 321 308 307 304 302 300 296 296 294 294 294 292 289 290 291 293 294 293 291 292 292 291 292 291 291 289 289 288 290 290 291 291 293 293 290 293 291 291 294 294 291 293 294 308 313 313 315 315 316 316
319 318 318 318 318 317 315 317 318 318 317 317 317 317 317 318 318 319 318 319 320 321 321 323 322 323 320 303 295 292 293 301 313 314 312 307 305 306 308 309 306 305 302 299 301 296 298 294 292 293 293 291 293 293 291 292 291 290 293 290 291 292 291 290 292 289 289 293 291 293 292 291 290 291 292 294 293 292 294 297 303 310 311 312 314 315 315 315
318 318 318 317 316 316 315 315 317 316 316 316 316 317 317 318 318 318 319 319 320 320 321 322 323 321 308 300 295 289 296 310 312 309 306 305 305 305 306 307 304 302 303 301 297 297 299 295 296 296 293 293 293 292 291 291 289 289 290 290 291 291 292 291 293 291 290 292 290 292 291 292 291 292 289 290 291 294 296 296 301 309 310 311 312 314 315 315
318 318 317 316 316 316 315 314 315 315 315 316 316 317 317 318 318 318 319 319 319 319 321 322 322 318 304 296 293 290 307 310 310 306 305 306 305 306 306 305 303 303 302 302 301 297 299 297 299 297 299 295 293 292 291 293 291 291 291 290 291 288 293 291 290 292 291 294 288 292 292 291 292 292 290 294 291 293 296 295 299 301 307 310 311 312 313 314
318 317 317 316 315 315 315 315 314 314 314 315 316 317 317 317 317 318 318 319 318 320 320 322 321 308 295 294 292 294 305 310 309 306 307 308 306 306 307 304 304 304 303 300 302 304 300 299 298 297 293 296 292 293 294 294 293 291 293 291 289 286 292 291 292 292 291 293 293 292 292 290 291 290 291 292 291 294 295 294 295 297 299 303 307 309 309 313
317 317 316 316 315 315 315 315 314 314 314 315 316 316 316 317 317 317 318 318 320 320 320 321 316 311 299 292 294 300 308 308 308 306 307 307 307 305 305 305 306 303 303 302 301 305 302 299 297 297 296 293 291 291 293 292 291 292 289 287 288 284 285 291 290 290 293 293 291 291 284 283 286 294 293 291 290 292 294 293 294 295 295 296 299 304 307 308
316 316 316 315 315 314 314 314 314 313 314 315 316 316 316 317 317 317 318 318 320 320 321 319 308 302 295 289 301 308 310 311 310 307 306 307 307 307 305 305 304 303 307 303 302 302 303 299 298 297 297 294 294 299 295 290 289 290 290 285 284 285 285 288 290 290 292 292 290 290 283 282 284 283 286 287 290 292 292 293 293 293 293 293 294 297 302 305
316 316 316 315 314 313 313 313 313 314 315 315 316 316 316 317 317 318 319 319 320 321 322 317 306 297 292 294 303 307 322 311 307 306 307 307 303 304 304 305 303 302 302 302 303 303 301 300 299 295 296 294 296 293 287 284 284 283 286 283 280 283 282 286 289 289 290 293 289 289 284 285 287 288 287 289 290 290 292 292 291 291 293 293 292 293 296 300
316 316 316 315 313 312 312 313 314 314 315 315 315 316 317 317 318 319 320 320 320 320 314 311 305 292 290 291 307 318 308 303 303 306 307 309 305 305 304 302 305 304 303 302 303 301 299 300 296 294 295 293 290 286 284 284 284 282 283 280 285 282 282 286 292 288 291 292 291 289 284 283 289 289 292 289 289 289 289 289 289 291 292 293 293 294 294 295
316 315 315 314 313 312 312 313 314 314 315 316 316 316 317 318 319 320 321 320 315 316 312 304 306 296 291 297 304 303 300 303 307 307 306 306 307 303 304 303 302 303 302 301 301 301 298 297 294 293 290 289 285 287 286 280 279 287 282 282 280 283 283 284 286 290 289 291 291 288 289 285 288 287 287 288 291 290 290 290 289 290 292 293 293 293 294 295
315 314 314 313 312 312 312 313 313 314 315 315 315 316 313 318 320 320 318 313 311 310 309 308 298 295 291 298 296 298 303 304 307 305 305 305 302 302 300 300 299 297 299 300 298 298 297 295 292 292 288 288 288 284 284 279 285 282 284 283 284 282 282 283 287 290 291 289 290 288 288 289 292 292 292 292 291 292 291 292 292 291 291 292 293 293 294 294
314 313 313 313 313 313 313 312 313 314 315 316 317 319 319 321 310 311 307 304 296 294 292 294 292 285 284 292 298 304 306 306 305 305 306 305 305 303 301 300 299 300 295 292 295 297 293 293 292 289 288 286 287 288 284 285 284 285 286 282 280 284 284 285 285 285 290 289 289 286 288 289 290 290 292 293 290 290 291 290 290 291 292 292 292 293 294 295
313 313 313 314 314 313 313 314 315 315 316 313 312 311 302 296 297 298 298 299 292 291 292 293 292 291 298 299 301 305 307 306 301 300 305 305 305 302 298 297 298 295 293 293 294 295 292 288 287 286 288 290 288 287 287 288 286 285 283 281 282 282 283 284 286 290 287 289 287 287 286 286 289 291 293 293 289 289 288 290 292 292 293 293 293 294 295 295
313 313 315 315 315 314 314 315 315 315 316 311 307 298 291 292 288 288 292 293 294 297 295 294 296 298 300 301 303 301 300 298 300 301 305 308 303 301 297 296 292 293 290 291 294 293 290 287 287 288 289 289 288 286 285 285 284 287 283 283 283 283 286 287 289 288 287 289 283 282 284 286 287 289 290 290 288 289 290 290 291 292 292 293 293 294 295 296
315 315 315 315 314 315 315 315 316 316 316 310 307 299 295 293 296 296 294 289 294 298 297 296 297 300 301 301 302 301 298 295 299 301 304 305 301 297 293 292 290 291 291 291 291 290 286 285 289 289 288 286 286 284 285 285 284 282 284 280 283 284 282 286 287 286 287 288 284 281 285 289 290 291 291 290 292 292 291 291 293 292 292 292 292 293 294 294
315 315 314 315 315 316 316 317 317 316 308 306 305 301 300 303 302 301 294 290 291 297 296 297 298 298 299 300 301 303 295 292 292 298 301 303 299 298 293 291 289 289 291 292 290 285 286 286 289 287 287 288 285 285 286 285 283 282 282 284 282 281 285 284 284 286 287 286 286 284 286 289 289 288 289 292 292 290 289 289 290 291 292 292 293 293 294 294
315 316 316 316 317 317 318 318 316 311 305 302 302 301 303 304 305 306 294 288 289 295 297 297 298 298 297 299 302 296 294 294 295 296 301 301 297 296 293 288 289 289 290 288 290 289 284 289 288 287 287 289 286 285 286 286 286 282 279 280 282 286 285 283 286 286 282 286 283 283 284 285 280 281 282 283 283 286 288 289 290 291 291 292 292 291 292 293
318 318 318 318 317 318 317 317 309 306 302 299 300 304 304 305 304 306 291 288 287 293 299 297 299 298 300 305 304 299 295 296 298 298 301 299 294 294 294 291 290 288 288 287 287 287 287 288 287 289 286 285 287 285 284 286 282 283 282 283 284 282 285 286 282 285 277 281 282 283 279 274 276 279 281 284 284 288 285 286 288 289 290 290 291 292 292 292
318 318 318 318 318 318 318 308 303 302 302 301 301 306 304 305 305 301 291 284 282 287 293 291 299 295 304 299 300 298 296 293 297 299 301 297 299 295 293 291 289 289 286 287 288 285 286 288 289 289 288 285 285 285 285 286 282 283 286 284 284 284 284 283 284 281 279 280 283 282 281 277 279 283 287 286 285 287 288 286 289 290 289 286 289 291 290 291
318 318 318 318 318 319 310 300 302 302 299 297 303 304 303 305 304 300 290 280 279 289 287 294 294 294 300 298 299 294 286 287 300 298 299 301 298 298 292 288 289 288 289 289 287 287 289 288 287 287 287 286 286 286 286 285 284 284 283 283 285 285 285 283 282 283 279 279 281 278 275 277 280 284 282 282 282 285 286 289 290 290 289 288 287 288 288 290
319 319 318 319 318 317 309 305 303 300 296 303 303 302 304 303 300 293 286 274 274 292 288 288 294 300 300 297 294 289 289 295 293 295 299 299 298 293 290 288 290 290 289 288 283 287 289 288 286 286 283 284 286 284 287 284 283 283 284 285 284 285 282 281 280 279 280 280 280 277 282 280 277 281 282 281 284 284 286 288 288 288 288 287 287 287 287 287
319 318 318 318 318 318 311 308 304 302 305 303 301 302 302 297 293 289 281 274 287 286 300 290 302 300 294 296 293 291 292 293 289 294 297 298 298 295 290 288 287 288 287 289 286 287 290 289 288 288 286 284 283 286 284 287 288 287 284 284 283 282 281 279 278 281 276 278 275 278 281 276 277 278 280 278 283 283 285 286 286 287 288 288 288 289 289 287
319 318 318 318 318 315 311 310 305 306 304 303 303 301 298 293 291 283 277 271 290 284 291 293 292 290 292 291 290 290 293 291 293 295 294 294 295 294 293 290 290 289 288 287 286 287 289 291 291 287 287 285 286 286 285 286 288 288 286 287 283 280 280 277 277 275 277 272 274 277 279 279 276 279 280 283 283 283 283 283 284 288 290 291 289 289 290 290
319 318 317 317 312 312 308 305 307 304 304 304 302 297 292 288 281 277 271 281 289 288 288 289 288 292 291 289 288 288 290 290 294 293 292 294 293 290 291 291 290 285 284 282 286 284 288 288 291 288 289 286 288 288 286 285 285 287 284 279 283 281 278 277 271 274 273 268 272 276 277 278 273 275 281 281 283 282 286 287 286 288 289 291 291 292 290 288
317 318 318 317 314 313 305 304 307 305 304 303 300 296 290 280 282 277 273 292 283 285 284 284 287 289 290 289 286 287 290 291 290 291 291 288 288 289 288 286 287 280 281 283 284 284 287 288 286 289 290 289 286 289 287 285 282 284 282 282 276 271 269 272 268 273 270 270 278 277 278 279 279 282 286 285 286 286 284 287 286 289 289 289 291 292 291 289
314 317 317 316 314 310 310 310 307 306 304 302 297 291 285 278 273 279 279 283 281 286 285 287 286 288 288 288 287 288 289 288 290 290 289 288 289 288 288 287 287 286 281 281 283 284 284 282 286 289 290 290 289 287 285 285 284 283 284 277 273 270 269 265 259 262 266 273 276 279 280 278 278 281 288 290 290 287 285 285 286 287 288 289 290 292 291 291
313 316 314 314 313 311 311 308 307 307 303 299 294 288 280 272 275 290 281 281 285 286 286 285 287 287 289 287 287 290 286 287 289 289 290 287 287 285 288 288 286 285 281 281 284 282 276 278 285 288 287 289 289 289 291 287 285 285 281 283 279 268 266 265 263 271 271 272 275 275 275 274 276 284 286 286 288 285 285 286 285 286 287 287 287 288 288 290
312 313 313 314 314 312 309 310 306 305 301 297 291 285 278 276 276 279 281 283 285 285 285 288 288 286 285 284 287 290 287 285 289 288 287 287 285 284 286 288 287 283 284 285 282 279 282 279 282 287 287 289 290 288 287 285 286 282 279 280 278 276 275 273 268 266 266 269 270 273 276 277 281 283 285 285 285 287 286 285 284 286 286 284 286 288 288 290
311 309 313 309 311 312 311 310 307 307 302 294 287 280 279 278 274 281 283 289 288 285 284 285 284 284 282 284 287 287 290 287 288 287 286 285 285 286 285 287 289 288 286 283 282 280 280 280 284 286 287 289 289 288 289 288 282 283 283 279 280 280 279 270 270 271 270 269 274 269 277 280 280 283 288 288 286 288 285 285 285 286 285 283 287 289 287 288
307 309 306 309 311 310 310 310 308 304 301 293 285 280 282 285 286 282 293 289 288 289 286 283 282 282 282 281 284 285 287 289 286 285 284 285 286 286 285 286 288 288 289 287 283 282 282 278 284 286 287 288 287 286 286 285 285 284 279 281 281 282 279 277 273 265 262 269 272 271 275 276 276 278 279 283 286 286 285 285 284 284 284 284 287 287 286 287
304 305 306 306 310 312 312 311 309 305 299 291 284 290 287 287 291 292 293 288 289 287 284 284 283 284 281 282 282 285 286 287 285 285 283 286 283 288 285 287 288 291 291 287 287 285 283 280 281 284 284 287 285 289 287 286 286 283 280 284 285 278 277 276 271 270 266 265 267 271 273 274 278 281 280 282 283 285 288 287 284 286 286 287 289 289 287 284
304 303 299 306 311 312 310 311 308 302 296 289 285 285 289 287 292 291 293 293 290 286 286 283 283 284 283 283 283 285 287 283 286 285 284 284 283 287 290 289 288 289 291 288 286 283 286 280 279 285 285 286 286 286 283 284 287 287 286 285 284 280 275 273 276 270 272 267 263 271 268 280 279 280 283 285 283 283 286 285 284 285 286 287 288 288 288 287
301 299 297 308 312 312 312 311 304 301 295 287 287 284 290 289 291 291 291 294 292 287 286 284 285 283 283 283 285 284 285 285 286 285 285 285 286 289 288 292 289 288 289 290 288 288 284 284 276 281 284 285 284 284 284 285 283 284 283 281 285 280 282 278 277 274 273 264 263 267 271 275 277 282 285 286 285 284 285 286 287 287 287 286 286 287 287 286
300 296 297 310 312 312 311 306 299 294 292 291 290 289 289 289 290 292 292 293 293 295 290 286 288 284 282 282 284 285 284 283 285 284 284 285 287 283 288 290 289 288 288 289 287 287 283 281 277 281 282 282 283 283 285 288 290 287 286 283 286 281 277 274 275 276 269 272 270 263 273 280 280 282 287 286 286 284 284 285 286 284 284 285 285 285 285 286
297 290 295 310 312 311 305 296 293 295 291 288 287 290 290 297 289 289 289 292 292 292 292 288 287 283 284 286 284 285 284 282 283 284 284 284 287 286 291 290 291 290 290 285 288 286 286 280 280 277 282 285 284 287 283 286 284 285 285 284 287 285 282 275 272 272 271 273 271 269 267 281 285 287 285 284 284 284 283 283 286 284 284 285 288 288 287 287
294 292 303 309 312 307 300 293 294 292 288 292 296 294 296 294 291 290 289 291 291 292 289 289 288 287 287 286 286 284 285 282 283 284 282 284 285 286 288 287 288 289 291 285 288 286 290 278 277 275 276 278 282 282 285 283 287 286 284 282 284 283 282 282 277 277 280 273 273 272 269 281 285 283 283 281 280 280 282 281 285 285 286 287 287 288 290 289
294 294 299 306 306 304 297 286 286 288 290 294 294 294 297 296 293 290 289 292 289 290 289 289 290 291 288 287 285 285 285 282 284 285 283 283 286 288 286 287 289 289 289 287 287 289 283 281 282 271 271 275 277 281 283 285 285 281 281 283 283 285 281 278 277 277 277 277 279 276 274 282 282 283 285 284 287 289 288 286 283 291 290 289 288 288 288 288
292 293 294 299 305 302 293 294 291 289 290 291 291 291 292 293 295 295 293 292 295 291 291 290 292 289 287 286 286 288 288 285 282 286 284 284 286 286 288 285 289 288 290 289 294 289 287 281 281 275 275 273 271 275 278 281 282 283 280 283 285 286 283 282 279 276 277 277 278 277 280 284 286 285 287 285 284 287 287 286 286 285 290 292 289 286 287 288
289 286 290 292 299 298 297 295 293 292 290 290 289 291 293 290 292 294 296 294 297 296 292 292 292 292 288 288 288 287 288 287 285 283 284 286 284 287 288 285 287 287 290 293 291 289 281 280 283 284 282 280 281 281 283 284 283 283 283 285 284 285 286 286 281 277 279 281 273 279 283 285 284 286 285 287 284 287 290 288 288 288 286 285 285 286 287 288
290 282 286 286 293 295 292 294 291 293 289 293 286 291 289 291 292 293 297 291 295 294 293 293 290 288 288 289 286 286 286 287 286 283 280 282 283 285 287 287 287 288 293 291 290 284 279 281 283 283 284 285 284 283 282 289 286 287 286 284 286 285 284 284 283 282 286 277 279 283 284 282 286 285 285 286 286 283 284 284 285 287 288 288 287 285 288 287
282 285 286 289 289 286 288 289 293 290 292 293 288 292 290 289 291 289 294 295 295 297 292 293 293 292 293 291 288 283 286 286 286 284 284 283 286 286 287 288 288 289 289 287 287 287 282 281 283 283 282 283 280 282 283 286 287 287 287 286 284 285 283 283 284 287 285 281 281 286 284 283 286 289 288 288 289 288 288 289 288 288 286 286 286 288 290 291
289 286 285 289 285 283 288 291 293 292 291 292 289 290 289 289 289 292 293 292 294 294 296 288 290 292 293 292 291 287 288 285 285 285 283 284 284 283 283 287 289 286 287 286 288 283 286 281 281 280 283 283 282 282 283 285 285 284 285 286 286 285 285 285 286 288 287 285 287 288 286 285 288 290 287 290 290 288 286 286 288 288 289 289 288 289 289 291
284 285 282 285 285 284 284 290 293 291 289 292 287 288 290 289 289 291 292 293 288 292 296 292 292 293 292 290 291 289 291 292 291 287 287 288 286 286 285 284 285 286 285 285 287 290 288 283 284 280 280 280 282 282 282 283 283 283 284 284 285 285 286 286 287 287 287 286 287 286 285 285 290 286 286 287 286 287 287 288 289 290 289 290 290 289 289 289
287 287 290 285 281 281 285 287 291 290 288 288 287 289 289 290 289 292 291 295 293 291 293 292 294 292 293 293 292 292 294 293 293 293 293 293 289 289 289 287 290 288 287 287 288 288 288 284 282 281 281 278 280 282 282 279 281 280 281 283 283 283 282 284 283 286 284 284 286 285 284 285 289 288 291 288 287 289 290 289 289 290 290 288 288 288 288 290
286 287 289 286 278 286 282 282 286 290 286 289 289 289 289 289 289 292 288 292 294 296 296 295 294 293 290 292 292 294 296 296 296 296 296 297 298 292 294 292 291 289 287 287 287 286 285 284 283 283 281 282 280 282 280 281 282 281 283 285 286 285 285 286 287 287 287 289 285 283 285 291 289 287 288 287 288 287 287 288 290 290 288 288 289 291 290 290
Wind_Speed
13 11 12 11 11 13 12 12 11 11 12 11 10 9 8 8 7 6 5 5 4 5 4 3 3 2 3 5 5 3 1 2 3 2 2 6 3 5 3 3 2 2 2 2 2 2 0 2 1 4 2 3 2 1 1 2 1 1 1 5 2 2 2 5 6 9 1 6 5 5 5 6 3 0 1 1 5 3 1 2 3 1 1 2 5 2 3 7
14 13 11 11 12 12 12 11 11 11 11 10 9 9 8 8 7 6 5 5 5 4 3 3 3 4 5 5 3 1 2 2 3 3 10 3 5 5 3 1 2 3 3 2 4 2 4 0 0 2 3 1 2 0 1 0 1 3 2 3 4 4 2 5 3 5 3 3 5 4 2 5 5 6 2 3 0 1 1 0 2 1 2 4 3 4 9 10
16 13 12 12 12 12 11 11 12 11 10 10 9 8 7 6 5 5 5 5 4 4 4 4 4 4 5 4 3 1 2 0 1 4 4 4 5 4 3 2 1 3 1 1 3 5 3 4 3 3 2 2 5 2 2 0 1 1 3 1 2 7 2 3 3 3 2 3 5 5 2 2 2 2 1 2 4 0 6 4 1 1 3 1 2 5 8 9
14 15 13 13 12 11 11 11 11 10 10 10 9 8 6 6 5 5 5 4 4 4 4 4 4 4 3 4 5 1 2 2 2 2 1 5 5 4 3 3 2 4 3 4 5 3 4 5 4 4 1 4 2 1 2 1 1 1 2 3 2 4 2 2 4 3 2 4 4 4 1 1 1 2 2 4 5 3 5 6 8 9 8 6 5 6 7 9
15 14 13 12 12 12 12 11 11 11 10 10 8 7 6 5 5 4 4 3 4 4 4 3 3 3 4 4 5 3 3 2 4 1 1 5 4 4 3 3 4 2 1 5 6 5 4 3 2 3 2 1 1 1 0 0 1 4 0 1 2 1 0 1 3 1 1 4 7 3 7 4 1 0 3 9 7 7 8 9 9 7 9 11 11 9 7 10
15 14 13 13 13 13 11 11 11 11 10 8 8 6 6 4 4 3 3 3 3 3 1 2 2 3 4 5 1 2 2 4 0 0 2 2 3 3 4 4 5 4 5 4 2 2 3 3 3 1 1 1 2 5 1 1 1 2 1 0 3 2 0 0 0 2 4 4 6 5 4 3 4 1 2 6 8 5 6 3 8 6 12 12 10 12 10 10
14 15 14 13 13 12 11 11 11 11 10 8 7 6 6 4 4 4 3 3 2 1 1 1 2 3 4 0 1 2 2 3 0 2 1 2 3 2 4 5 6 3 1 3 2 1 2 3 3 2 3 3 1 1 0 0 3 4 3 0 0 2 1 2 0 1 1 9 5 3 2 2 3 3 1 4 7 4 1 2 2 5 5 8 12 12 15 16
14 14 14 11 9 9 11 11 10 9 8 7 6 5 5 5 4 4 3 3 2 1 1 2 3 4 1 1 2 0 1 2 1 1 1 3 6 5 7 3 3 3 3 3 6 3 4 4 5 2 2 5 3 4 0 4 3 2 1 1 0 1 2 2 1 4 3 2 0 4 5 0 3 1 1 6 9 7 4 1 3 7 8 6 9 13 10 10
14 13 13 11 8 4 2 5 9 8 7 7 6 5 5 4 4 4 4 3 2 2 2 2 4 3 1 1 3 4 3 1 2 2 3 4 3 6 6 1 2 3 3 3 0 6 5 4 2 5 3 2 1 5 0 5 2 2 1 4 1 1 1 2 1 4 3 1 2 4 1 1 2 2 3 9 7 2 2 4 5 7 8 10 11 13 12 12
14 13 12 12 10 8 6 3 8 8 8 6 6 5 5 5 4 4 4 3 2 3 3 3 4 4 1 2 2 3 2 2 3 2 4 4 5 7 5 2 4 5 4 1 5 4 3 4 5 5 7 3 2 2 0 2 2 3 4 3 4 1 0 3 1 1 1 1 1 3 1 0 2 3 6 2 5 1 4 4 2 8 10 10 9 9 10 12
13 13 13 12 10 9 7 4 4 7 7 7 6 5 5 4 4 4 3 3 3 4 3 3 3 2 1 2 5 6 1 2 1 3 3 3 6 4 2 3 3 3 4 1 2 3 1 6 3 4 1 3 3 0 1 1 5 5 8 4 6 5 1 1 2 1 1 1 1 3 1 1 2 1 7 1 3 1 6 3 5 5 7 10 10 10 10 10
13 14 14 13 11 10 11 7 8 8 7 8 7 5 4 3 3 3 4 3 4 3 3 3 2 1 2 3 4 3 1 2 2 2 1 1 1 4 2 4 3 3 5 3 3 1 3 5 5 1 2 2 2 1 1 1 3 3 2 2 3 4 1 3 2 0 1 0 0 0 1 2 0 7 3 1 2 1 4 5 5 6 6 5 6 7 6 12
14 14 14 13 12 11 11 11 10 8 8 8 6 4 3 3 3 4 4 4 3 3 3 1 1 1 2 1 4 5 1 2 2 2 2 3 2 2 2 1 1 2 2 4 3 3 3 6 4 5 0 4 4 2 3 5 1 2 6 3 2 2 3 1 1 1 1 0 1 0 2 7 9 12 0 0 4 2 1 4 5 6 5 5 5 7 8 7
14 14 14 13 12 12 12 12 10 9 8 6 5 4 4 3 4 5 4 5 4 2 1 2 1 1 1 2 2 2 1 0 0 2 1 2 3 1 2 3 3 2 0 3 2 4 4 1 5 5 2 5 2 0 4 2 4 4 0 5 1 1 3 2 0 0 4 0 1 1 3 6 5 5 5 5 1 4 4 6 6 6 5 5 5 5 8 9
15 14 14 13 12 11 11 11 10 9 8 7 6 4 4 5 5 4 4 4 5 3 2 2 1 3 1 2 1 5 2 1 2 0 1 1 3 2 1 2 4 5 2 5 3 2 4 4 5 3 1 1 3 5 3 3 4 3 4 2 2 3 3 5 0 3 4 1 4 3 1 7 9 9 4 3 1 5 7 7 6 6 6 6 5 6 7 10
14 13 13 13 12 11 11 10 10 9 8 7 5 4 5 6 6 5 3 4 3 2 1 0 2 3 3 1 0 2 1 1 2 1 1 1 1 1 1 3 1 2 1 3 3 3 4 6 7 2 2 4 8 7 4 3 1 4 2 1 1 0 3 3 0 1 2 1 3 2 4 5 3 3 1 3 3 3 4 5 6 7 8 8 6 7 7 8
14 14 12 12 11 12 11 11 9 9 7 5 5 6 7 7 6 5 3 1 1 1 1 1 1 0 2 1 1 0 2 2 2 1 2 1 1 3 4 3 1 1 4 3 3 2 5 5 3 2 4 5 3 6 7 1 1 2 2 1 3 3 2 1 4 1 1 1 3 3 1 6 5 7 4 5 3 1 2 5 6 7 7 8 7 6 8 8
14 14 12 11 12 13 12 11 10 9 7 5 6 3 2 3 5 3 3 2 1 2 2 1 2 1 4 1 1 3 0 2 2 2 1 1 3 4 3 2 1 4 3 3 4 2 2 1 3 5 2 1 2 4 7 7 9 7 2 1 1 1 2 2 1 1 0 2 2 1 1 10 12 10 9 5 1 1 5 7 6 5 6 8 8 8 9 9
14 13 14 14 14 14 12 11 11 9 7 7 6 6 6 3 2 0 2 0 1 3 1 3 4 5 4 8 2 2 1 1 2 2 0 1 2 3 4 3 5 6 2 3 1 2 3 4 4 4 6 3 6 7 9 2 7 9 9 6 4 5 3 2 3 2 1 1 2 3 6 7 10 8 10 10 0 2 6 5 6 8 8 8 8 9 9 10
15 16 17 16 14 13 13 12 9 8 7 0 1 2 2 3 1 2 1 1 0 1 1 3 3 2 1 3 4 0 0 1 5 3 1 0 0 2 4 2 3 5 4 5 1 2 1 6 7 7 8 9 5 5 2 2 6 6 5 5 3 3 1 2 1 1 1 1 4 4 5 5 11 11 12 11 2 3 5 9 10 9 8 8 9 10 12 11
17 17 15 14 13 13 13 10 8 7 5 1 1 3 4 7 10 1 1 3 2 0 1 2 3 1 1 2 0 5 6 1 2 0 0 0 1 5 1 2 2 3 1 1 4 1 4 5 7 7 7 7 6 6 8 8 4 6 6 5 1 1 1 0 0 2 3 1 1 2 2 8 11 12 12 8 2 8 10 10 10 12 11 9 9 12 14 15
16 15 14 13 12 13 11 10 8 7 3 3 1 3 0 3 1 2 6 2 1 1 3 2 1 3 2 1 1 2 4 3 1 0 1 1 1 5 2 4 4 8 0 3 4 3 2 7 8 7 3 6 6 3 3 5 5 3 6 4 4 1 2 3 1 2 2 1 5 2 5 9 11 11 11 9 12 8 7 9 10 9 10 9 10 12 15 10
14 13 14 14 13 12 10 8 7 6 4 3 4 1 2 1 0 1 4 4 3 1 1 1 2 2 1 4 1 1 2 3 6 2 2 1 2 1 4 4 4 4 1 3 8 4 2 5 9 3 7 8 3 3 7 7 7 5 5 3 3 2 2 1 2 1 3 2 2 2 6 12 8 6 11 13 8 5 5 7 10 8 12 13 14 12 10 12
15 13 14 13 11 12 10 9 8 5 2 3 2 4 2 1 2 1 1 3 3 1 0 0 1 2 3 4 3 3 4 1 4 7 2 3 6 1 4 3 5 3 7 4 9 10 6 1 1 8 3 8 6 2 6 5 2 1 3 3 4 1 1 2 0 1 0 1 2 3 4 9 4 4 5 3 2 2 5 4 8 11 10 12 9 8 9 12
14 13 12 12 12 11 10 11 3 3 2 2 3 2 2 1 1 0 4 2 3 0 1 1 2 1 2 1 1 2 0 2 0 0 0 4 3 3 3 2 4 3 3 3 5 4 1 1 4 6 4 4 7 3 4 8 2 1 3 5 4 4 5 0 2 2 5 2 3 3 4 4 3 5 8 10 6 7 2 3 8 10 10 6 9 14 7 8
13 13 13 11 11 11 11 4 2 4 5 4 2 0 0 1 1 0 6 4 2 2 2 5 1 3 1 0 1 2 3 1 1 1 1 3 3 2 1 1 1 7 3 5 7 3 2 1 1 6 5 4 5 4 4 5 6 3 3 3 3 6 5 5 2 3 1 0 2 3 1 7 5 6 7 7 6 11 10 5 12 11 6 4 9 9 7 7
13 13 12 11 12 12 6 2 2 7 4 3 2 1 1 1 1 1 3 5 3 4 6 1 1 1 2 1 3 3 6 4 0 2 2 3 1 1 5 3 2 3 3 2 3 3 2 2 5 4 5 4 4 2 3 8 8 3 1 5 6 7 6 4 4 2 1 1 3 4 3 2 9 8 4 3 4 9 9 12 12 9 7 7 7 8 7 8
14 13 12 12 12 10 1 2 4 5 3 0 2 3 2 1 1 2 4 4 3 3 3 2 1 2 1 0 5 2 1 3 4 2 0 2 1 2 3 6 6 7 2 4 7 1 2 3 2 3 2 3 6 3 4 4 4 2 2 6 4 5 3 5 4 4 1 1 7 3 0 1 5 9 5 2 6 7 10 12 10 9 9 8 7 6 7 7
13 13 13 12 13 8 4 2 3 3 1 3 3 3 3 3 2 6 4 2 0 2 3 5 3 1 2 1 3 1 1 3 2 1 2 1 4 2 2 4 4 6 4 2 7 1 3 2 4 6 6 5 3 0 2 4 4 1 7 7 7 7 7 4 4 2 1 1 6 3 3 2 9 7 6 2 1 7 9 7 8 7 9 10 9 6 4 4
13 13 13 14 9 4 1 2 1 0 3 3 4 4 3 2 3 3 3 6 4 2 1 0 2 5 3 7 0 3 2 2 2 1 3 3 2 4 2 3 4 5 2 6 6 3 1 4 4 4 4 3 5 1 1 1 2 9 5 8 6 9 5 3 7 2 3 1 6 5 3 1 6 5 6 3 3 3 3 4 5 7 7 6 4 4 4 4
13 12 13 12 4 3 3 1 2 2 3 5 4 5 3 8 5 4 5 6 4 1 2 0 2 3 9 13 8 2 4 1 1 3 2 1 1 4 2 4 4 6 5 5 2 5 2 1 1 1 3 3 3 5 5 3 4 6 3 4 5 2 7 4 5 5 1 5 5 1 3 1 6 6 5 8 5 5 4 4 5 8 8 7 5 5 4 4
4 12 14 9 2 4 3 3 2 3 3 4 4 4 5 4 2 7 5 1 3 5 5 5 1 4 9 2 6 3 6 2 0 3 7 4 6 6 6 8 6 5 2 6 5 1 1 2 1 5 4 6 3 9 4 3 3 6 7 7 5 3 4 2 3 2 5 5 0 3 2 1 12 9 6 8 10 6 6 7 4 5 8 8 6 7 5 4
5 8 13 5 4 2 0 0 2 4 4 2 5 4 4 5 8 7 1 1 1 4 5 4 5 6 7 6 5 2 0 6 1 1 4 1 6 4 1 2 4 6 8 4 4 2 4 2 1 2 2 3 5 10 2 2 1 5 7 6 5 1 1 3 3 1 5 5 4 1 0 5 4 6 13 16 9 1 3 6 7 7 7 7 8 8 7 6
6 10 7 2 2 1 0 2 3 5 3 2 6 5 5 4 8 3 3 1 1 1 5 3 4 4 11 9 8 6 4 2 6 3 2 3 3 6 6 2 4 1 7 2 7 7 3 4 6 6 2 2 3 5 12 8 9 7 1 9 9 8 5 4 3 5 5 3 2 4 1 7 2 0 1 6 7 6 6 7 5 6 8 7 7 7 7 6
5 8 6 2 1 0 2 0 3 4 4 4 7 6 9 11 1 6 5 2 1 2 3 1 8 8 3 2 1 2 3 2 1 5 3 8 7 6 9 8 2 5 3 10 4 3 7 3 4 2 1 4 8 1 3 6 4 0 3 6 5 5 6 1 4 3 0 1 2 1 6 3 4 3 9 5 6 7 5 5 3 5 5 4 6 5 4 5
3 2 3 3 1 1 2 0 3 3 5 7 8 6 12 6 3 2 3 4 2 5 5 6 4 6 2 3 1 5 3 3 3 3 1 4 1 7 3 3 8 10 8 8 4 3 3 4 2 6 3 3 1 0 0 2 6 4 4 4 4 2 8 6 2 1 1 3 9 2 8 6 8 7 10 8 6 8 5 4 2 4 5 4 6 7 6 5
3 1 4 1 1 1 2 1 1 4 6 6 8 11 3 0 1 3 2 4 4 13 7 10 5 7 7 7 6 6 3 5 3 5 5 2 4 5 3 5 2 4 6 10 1 3 9 4 2 3 4 1 0 1 3 5 3 8 2 7 2 2 4 4 4 2 2 3 8 2 8 3 2 8 4 2 1 6 6 5 4 7 5 4 5 5 4 5
1 1 2 1 2 2 1 1 3 4 4 5 11 3 0 2 1 0 0 2 5 1 6 5 1 8 4 5 5 6 3 6 6 2 4 5 4 5 6 2 5 10 9 2 4 3 5 1 1 1 0 5 3 1 3 2 2 3 4 4 6 3 1 2 4 2 1 3 6 4 2 6 9 9 3 2 2 6 9 6 5 6 6 5 8 6 1 2
1 2 2 2 1 3 3 1 4 5 4 4 8 4 2 1 0 1 0 1 1 4 7 4 5 3 5 7 4 1 5 7 7 7 7 3 5 4 11 6 2 4 7 5 2 1 0 4 2 1 2 1 1 3 10 3 2 1 3 4 1 3 2 5 6 4 5 4 2 9 3 10 4 7 9 6 6 6 7 6 5 7 5 5 7 7 8 7
2 2 0 1 0 2 3 4 4 3 3 9 7 2 1 1 1 1 3 0 1 1 2 3 1 5 3 4 6 9 5 4 8 5 3 2 7 2 4 4 4 4 6 4 2 3 3 1 5 1 3 2 4 5 10 11 8 2 2 3 0 1 2 4 1 3 4 5 5 3 8 7 5 6 10 10 8 8 7 6 7 5 5 6 6 7 7 6
1 2 0 2 3 2 5 5 3 6 6 1 3 2 0 1 0 1 3 4 2 2 3 4 5 5 6 5 2 1 4 5 6 6 5 3 8 4 4 4 4 5 3 2 2 3 3 2 7 2 1 5 7 2 4 11 12 13 13 11 12 9 4 4 7 3 1 3 5 3 11 7 5 2 8 7 8 6 8 4 3 3 4 4 5 4 4 3
3 3 1 3 4 6 6 5 1 1 2 4 5 3 2 1 2 0 1 2 5 1 1 5 0 3 1 3 3 6 6 4 4 4 3 7 5 2 1 3 2 9 10 7 10 3 5 3 8 4 8 10 3 1 2 1 2 1 3 8 8 6 6 5 5 5 2 3 4 3 1 12 5 8 6 4 4 5 3 4 2 1 3 3 3 2 2 3
2 2 1 3 5 3 3 3 2 1 1 1 2 2 1 1 2 2 1 1 0 1 2 2 2 2 1 2 1 3 7 4 8 8 3 4 1 3 1 2 3 5 6 0 4 2 6 3 3 1 3 4 3 3 1 1 1 2 1 1 5 7 7 7 5 7 9 2 1 1 1 11 1 1 2 3 3 2 1 4 3 1 2 2 4 4 4 3
2 2 1 3 6 1 5 5 7 8 3 1 3 1 1 1 2 1 1 0 2 1 1 1 1 1 1 1 2 5 4 4 3 5 1 2 3 2 2 3 5 5 6 6 8 6 4 4 7 2 2 2 4 3 2 2 1 3 2 3 4 3 3 2 5 1 1 8 8 7 9 14 1 3 1 1 1 1 2 2 4 1 4 3 3 3 3 4
3 1 1 2 2 3 7 2 4 4 5 6 5 5 3 0 3 4 3 2 1 2 1 0 1 3 2 1 2 1 2 1 1 1 2 0 1 2 3 4 3 4 2 2 1 3 6 5 8 7 11 10 8 10 14 12 8 2 2 4 6 11 7 4 5 2 6 6 8 7 11 7 1 2 0 1 2 2 1 2 2 1 0 2 1 3 4 4
1 4 1 3 2 1 2 1 2 5 7 7 5 4 5 3 0 1 7 2 3 2 1 3 3 3 2 1 1 1 1 1 2 2 3 2 1 1 2 6 4 1 2 3 1 3 3 1 6 10 13 13 12 5 1 12 4 8 8 11 7 6 11 9 4 5 13 10 5 8 12 15 6 1 1 5 2 4 1 0 1 2 4 5 4 5 5 5
1 2 4 4 2 1 2 0 0 4 6 8 4 4 8 6 1 0 4 2 4 3 1 1 2 3 2 3 3 1 1 2 2 6 3 5 1 1 1 3 2 5 2 1 2 4 2 2 7 8 11 11 5 4 6 13 14 15 14 11 13 11 11 12 12 15 12 4 12 12 12 9 19 7 6 7 7 4 4 4 5 5 4 3 5 4 6 6
2 2 2 1 2 6 7 6 6 3 2 9 4 4 8 8 4 3 2 2 2 6 4 0 3 5 6 7 3 2 3 2 3 3 1 0 2 1 1 1 1 4 1 1 1 3 5 5 4 5 8 8 1 2 6 7 11 12 15 13 13 13 11 15 17 19 9 10 18 16 8 12 19 15 10 11 9 7 6 6 4 4 5 5 4 4 6 7
2 1 1 2 2 2 3 1 10 6 7 10 2 5 6 11 12 8 4 3 3 3 6 4 8 9 8 5 4 3 4 4 6 3 3 3 3 2 1 1 1 3 1 1 1 1 2 5 3 1 6 5 4 4 5 10 6 5 9 13 15 16 18 20 20 19 17 13 14 17 11 14 16 11 9 12 7 5 4 1 1 1 4 5 5 5 6 7
2 1 0 2 3 3 1 2 8 8 6 7 5 6 7 11 13 6 2 6 4 7 6 9 7 10 9 9 9 7 8 9 3 4 3 5 2 2 4 4 3 2 2 1 1 0 4 4 4 2 3 5 5 1 2 8 6 8 7 8 11 14 18 21 19 18 14 14 13 14 14 15 14 5 4 5 3 1 1 2 5 7 6 7 6 6 6 6
0 1 0 4 2 2 2 2 6 8 6 4 7 5 5 9 11 10 4 4 9 7 9 15 9 6 7 11 11 13 10 12 10 7 9 9 8 6 5 3 4 5 2 2 1 0 2 2 3 2 3 5 2 5 2 2 1 2 6 9 11 14 13 9 10 8 8 13 16 14 14 17 10 9 8 4 4 6 7 7 6 7 8 6 5 6 6 7
1 1 1 1 2 1 3 1 2 7 8 9 9 6 5 9 3 7 3 3 5 8 12 14 9 8 4 10 13 16 13 9 8 3 5 8 5 5 7 6 6 5 2 2 0 2 2 4 2 1 5 8 1 5 4 3 1 6 11 17 20 10 7 6 11 12 16 15 14 12 18 20 6 4 4 2 7 5 4 5 7 8 5 5 6 7 7 6
Wind_Direction
160 168 179 182 189 189 187 186 189 188 181 175 173 171 175 184 186 187 182 187 176 161 161 170 154 178 224 239 251 261 1 144 152 187 173 240 154 155 154 134 110 143 115 95 75 100 336 23 146 338 51 57 315 115 263 60 52 54 78 111 95 195 137 200 171 187 220 141 204 178 195 120 156 177 197 62 34 64 24 70 312 325 352 256 270 287 156 127
154 177 180 191 191 189 187 186 195 191 181 178 171 168 174 181 179 174 179 183 184 156 168 188 182 199 225 241 259 277 111 193 173 180 213 139 134 148 134 124 149 97 121 71 115 123 136 264 4 47 94 70 331 81 348 233 72 97 116 90 204 191 230 144 201 194 140 222 176 176 148 161 195 139 227 103 272 55 110 309 16 330 320 1 26 107 128 135
156 175 192 191 190 189 190 190 193 185 185 177 166 161 173 174 170 178 182 179 175 158 175 203 205 210 231 252 255 187 157 88 161 241 243 163 145 151 137 140 136 104 91 141 186 136 154 186 189 96 12 103 0 188 40 160 80 207 120 149 252 203 226 213 180 201 205 126 147 156 205 161 185 141 185 167 166 79 181 192 323 264 256 328 87 123 134 144
160 172 191 189 189 191 197 190 188 185 183 168 161 159 162 176 185 184 179 176 156 172 192 195 213 237 251 262 259 157 158 99 228 234 248 199 153 134 139 120 90 91 96 69 139 106 99 83 72 96 58 73 302 25 131 249 102 221 77 161 223 189 115 224 180 240 240 177 153 138 66 141 247 200 140 153 112 268 265 232 176 199 205 192 174 151 150 156
164 171 182 191 194 197 195 192 192 191 177 166 157 157 162 177 182 192 178 174 177 176 197 187 230 261 273 265 265 153 115 80 245 211 269 173 155 138 122 94 103 94 82 138 84 55 71 105 98 40 87 185 355 24 281 348 131 88 188 203 186 128 32 220 192 122 116 151 109 123 132 208 83 48 114 152 158 214 211 225 220 201 165 157 169 177 162 169
164 172 177 191 200 192 190 195 198 188 174 162 164 158 178 175 187 202 199 186 195 191 169 210 256 282 276 266 157 194 180 169 268 346 178 158 120 115 115 103 114 105 108 70 103 101 105 21 93 133 19 89 184 139 246 147 345 167 314 255 203 198 135 315 21 308 139 117 132 141 200 98 134 201 193 180 190 233 226 232 206 188 178 172 153 152 168 177
167 171 175 189 198 185 191 195 195 188 176 170 174 179 188 196 207 214 221 224 212 199 154 295 275 286 289 231 239 132 175 253 58 235 160 133 84 99 107 108 103 105 106 95 66 116 84 108 97 188 95 64 296 129 201 182 23 105 183 183 45 198 198 14 3 265 128 129 183 188 101 134 148 188 123 203 243 224 281 275 228 154 123 138 150 178 177 185
167 171 171 186 183 187 194 190 195 187 180 191 189 195 203 203 215 225 244 242 275 315 291 300 293 284 283 148 172 331 40 264 196 324 328 66 60 67 103 89 121 117 117 165 137 133 125 131 163 140 80 150 211 131 256 88 24 97 123 201 211 65 317 338 58 51 88 75 316 119 132 244 173 155 79 246 246 252 273 31 122 135 141 156 166 177 189 194
169 168 170 170 165 147 5 229 192 191 200 203 213 214 216 215 220 234 247 272 285 299 291 296 301 296 179 83 118 99 245 240 191 18 57 66 36 81 123 105 157 133 130 90 87 167 138 234 143 183 227 183 161 103 291 123 300 164 168 123 80 64 339 334 22 34 41 91 71 97 171 321 234 217 239 236 248 246 111 73 122 135 149 173 185 186 184 194
169 166 164 157 153 177 193 274 194 204 206 222 223 223 226 224 229 245 252 260 278 292 286 302 308 293 139 92 51 159 252 276 331 33 69 105 80 98 88 126 117 115 112 74 92 108 162 207 174 185 125 80 108 98 145 109 213 143 83 95 98 295 345 359 143 354 329 99 320 141 262 305 311 122 282 306 255 102 97 106 146 152 176 188 189 192 200 195
165 164 158 151 157 172 186 186 202 210 213 236 234 226 221 223 233 247 252 257 278 282 283 301 336 200 115 87 127 211 237 50 354 6 54 109 85 115 191 143 148 92 112 112 185 177 209 147 170 116 37 224 115 358 111 226 114 93 133 97 25 349 76 18 70 4 1 27 69 132 154 299 302 93 227 235 326 196 143 150 168 194 189 193 198 197 203 209
158 162 166 160 166 183 194 193 206 217 231 242 232 218 216 227 248 249 256 271 275 276 291 316 47 130 80 73 146 206 302 238 335 344 65 110 112 184 201 153 164 158 137 154 224 233 171 160 130 92 192 122 84 113 59 128 72 142 124 111 312 1 52 357 128 335 6 177 111 147 77 301 322 234 236 257 348 79 165 174 199 211 219 218 211 211 208 217
159 162 163 161 168 182 192 204 211 219 232 235 218 217 227 248 258 259 267 283 278 273 291 340 70 95 94 106 241 235 261 280 334 18 76 51 94 71 105 122 166 155 149 138 193 203 174 138 122 85 203 95 153 116 177 75 21 121 41 123 29 10 346 320 312 357 98 228 76 336 236 268 249 241 165 230 48 67 110 231 228 229 230 229 217 216 228 236
160 162 163 167 175 186 201 205 208 213 223 224 223 230 241 258 266 273 278 272 284 269 319 36 93 86 97 230 273 252 299 175 278 61 25 314 111 341 51 48 84 91 40 102 94 121 128 102 97 120 126 99 136 306 71 358 26 136 230 56 100 78 249 308 46 312 142 30 33 105 193 288 271 279 270 289 184 161 210 235 236 241 249 244 226 228 232 238
163 165 172 175 181 189 197 200 205 210 215 228 225 241 259 269 271 278 279 280 263 234 119 103 23 88 59 273 295 298 254 109 36 316 317 94 108 55 19 42 38 30 88 106 130 95 121 102 84 51 96 295 94 79 38 38 10 29 77 280 328 156 274 297 321 153 157 341 44 91 313 245 270 281 295 320 139 177 213 230 243 250 250 248 244 235 238 239
165 170 173 181 168 180 193 201 199 204 210 224 237 264 281 280 282 279 265 248 217 232 226 70 16 108 99 311 218 335 38 113 184 283 304 103 108 140 156 114 28 30 37 21 75 100 48 83 76 175 130 36 65 97 73 56 342 1 86 238 229 45 257 350 83 3 49 122 10 152 227 317 322 277 278 26 98 152 207 256 260 255 254 252 242 239 243 258
168 169 170 164 162 185 192 196 197 203 208 226 246 268 280 277 276 258 239 144 322 175 322 169 137 75 146 269 309 67 223 235 304 40 21 25 119 145 96 63 58 49 52 74 31 52 4 65 294 42 29 122 148 107 89 4 312 254 36 148 213 166 229 253 305 24 30 80 220 11 244 237 260 287 292 325 70 104 216 252 255 253 252 251 253 247 246 244
168 171 172 173 177 185 189 190 196 204 215 232 238 252 273 269 236 145 89 47 302 163 106 128 115 94 274 12 165 225 198 122 59 155 66 296 111 81 94 91 40 80 54 86 0 92 328 72 29 182 19 38 125 85 132 204 184 194 188 108 266 287 214 216 136 220 39 21 194 355 288 279 272 281 293 276 339 318 266 246 254 255 254 261 259 255 248 246
171 176 176 178 178 179 183 188 189 201 213 223 240 257 263 282 53 143 95 31 122 82 108 198 144 153 208 213 213 63 70 182 107 75 101 31 1 96 59 68 88 121 128 77 243 119 352 73 37 73 161 137 197 173 163 204 156 185 173 169 144 141 206 212 245 278 164 136 234 221 226 261 283 294 287 296 42 229 261 286 278 264 254 255 252 254 252 245
171 176 178 181 175 174 179 181 188 198 203 84 222 147 81 85 42 98 339 328 207 180 212 206 131 176 61 23 127 212 312 38 127 336 322 296 92 70 35 63 34 59 108 161 152 84 97 135 176 190 192 195 186 165 167 129 147 108 85 100 163 168 276 278 290 285 345 106 243 236 262 274 279 273 277 278 334 300 288 278 267 262 259 252 253 253 253 249
173 179 186 180 171 174 177 181 187 192 183 161 207 169 158 174 113 212 221 254 209 135 199 256 173 147 28 135 211 143 119 355 59 19 186 175 120 113 249 47 52 128 8 189 139 285 66 147 226 209 204 184 166 142 110 72 53 134 124 115 130 169 121 218 121 352 323 138 291 30 318 267 259 272 269 279 310 262 247 253 259 258 252 254 251 258 257 250
178 179 175 167 171 178 178 182 187 191 139 128 204 203 229 207 163 203 125 171 246 36 76 160 59 54 347 171 262 123 68 88 50 37 314 116 27 135 273 105 145 159 164 103 49 45 65 182 225 216 183 99 103 110 70 113 110 46 135 160 103 254 237 293 278 341 327 72 267 2 346 282 269 265 268 256 248 237 226 223 240 242 259 254 250 250 260 280
173 172 170 172 182 178 182 186 188 121 95 132 205 246 222 237 10 227 100 92 124 330 78 62 73 78 30 329 293 339 93 135 178 248 236 45 104 205 145 108 114 131 67 140 146 119 117 281 237 185 140 112 59 82 97 71 61 104 99 97 198 244 109 276 286 352 3 67 306 327 317 286 278 272 262 259 249 264 242 234 245 232 242 245 242 240 251 258
178 175 175 183 179 182 183 180 116 104 186 192 238 210 293 51 93 58 54 146 165 264 92 248 143 159 173 146 214 102 123 212 121 194 297 116 151 177 97 131 117 110 174 153 149 157 188 223 57 118 133 138 130 119 119 122 125 8 116 125 122 164 209 146 203 327 349 42 62 355 304 295 332 338 330 311 325 300 279 279 272 264 244 251 275 285 238 249
181 179 176 182 187 177 174 119 126 205 123 101 259 244 285 300 23 21 96 40 22 116 290 8 115 245 193 44 16 147 244 75 200 253 221 120 143 89 183 168 106 181 145 167 113 121 277 268 146 94 88 83 112 114 174 125 54 343 230 165 191 171 136 264 9 85 20 344 348 46 352 309 298 297 249 278 335 312 257 329 267 250 253 255 257 253 260 254
177 178 179 180 173 167 145 112 249 154 135 187 215 253 315 147 18 33 97 68 201 247 22 193 127 208 131 241 45 141 106 170 275 232 97 209 172 137 101 86 106 192 154 149 161 177 192 356 135 152 123 91 99 143 213 130 156 108 245 169 150 140 120 121 78 73 1 135 342 25 142 273 305 274 280 293 327 297 306 282 270 273 268 243 246 258 260 246
176 182 174 174 169 154 139 222 201 118 129 263 228 166 189 160 359 110 64 12 329 185 154 279 88 222 57 206 134 115 128 244 66 36 55 344 129 330 126 206 43 42 155 164 56 238 99 32 64 68 93 98 114 112 216 141 119 197 244 118 107 102 125 153 107 115 198 258 300 38 101 222 304 287 243 331 317 298 302 287 279 290 293 265 257 261 260 254
177 176 176 176 162 177 142 134 119 162 199 212 104 120 102 159 72 50 78 100 252 132 135 235 229 353 85 305 62 135 208 168 101 229 123 294 107 5 92 201 162 166 174 102 180 262 137 156 117 102 74 100 172 210 178 128 120 220 189 127 124 135 146 115 92 106 95 46 280 331 279 265 254 265 312 348 312 294 277 270 286 291 290 289 284 263 260 263
177 175 174 168 169 169 84 143 150 184 214 164 125 101 84 71 82 120 130 154 279 85 308 104 276 60 19 28 48 42 62 8 137 225 316 42 31 159 87 212 121 110 34 133 175 249 350 159 215 146 131 183 236 303 168 120 90 241 131 88 90 79 67 85 98 77 352 36 270 238 192 205 276 281 332 338 251 270 265 280 277 284 293 295 299 303 288 281
174 176 166 170 156 154 160 83 199 227 118 109 120 105 66 60 115 149 114 238 124 196 82 196 134 197 135 139 16 1 117 341 94 25 37 146 331 38 19 148 118 86 59 22 75 182 249 319 171 88 176 191 137 37 154 340 105 132 103 79 34 38 24 24 58 81 55 319 253 250 295 163 289 273 228 157 212 208 277 302 292 306 325 320 293 278 305 325
180 165 166 155 155 178 117 122 258 198 124 105 112 77 74 41 137 112 189 223 61 75 35 149 175 73 145 158 164 315 83 7 68 128 106 350 24 41 145 49 46 58 60 16 38 332 15 359 83 268 86 115 108 81 17 57 91 121 94 120 66 356 13 33 347 35 150 269 264 250 227 131 197 289 283 239 272 228 207 263 284 317 316 315 321 336 332 327
136 164 156 162 169 131 129 191 211 116 119 132 84 89 104 136 324 185 205 26 156 192 154 183 284 150 170 92 64 149 139 53 347 148 146 168 152 148 206 153 159 93 202 171 200 346 46 89 274 325 204 126 109 86 2 15 2 81 87 63 111 246 38 283 15 253 218 208 244 331 200 324 240 228 265 287 270 262 215 220 223 287 305 307 321 339 324 314
56 150 155 146 99 127 217 173 110 117 100 77 76 57 98 114 197 210 148 204 245 130 229 104 172 162 146 119 160 143 335 141 235 83 102 26 138 237 244 155 184 137 186 225 99 103 267 281 353 305 25 227 132 122 137 112 347 101 131 132 100 119 92 248 276 244 305 288 269 301 228 260 257 274 237 243 250 175 222 228 238 259 264 283 296 310 317 312
70 141 138 86 101 122 211 164 133 122 95 60 97 80 52 148 226 92 141 198 168 13 84 113 93 90 155 164 190 165 111 296 158 181 122 143 118 185 243 269 136 71 78 160 151 186 121 301 256 143 222 173 187 158 175 164 172 207 98 145 175 145 157 208 195 213 220 206 279 281 62 232 107 242 269 234 261 286 274 257 252 262 265 261 273 277 283 291
53 94 111 70 29 130 110 240 106 116 85 86 103 158 172 212 99 167 167 185 259 51 52 128 123 134 176 28 181 239 134 141 167 119 166 147 196 190 189 203 227 109 144 132 249 97 203 199 266 258 279 155 175 254 106 91 40 26 152 80 89 226 141 148 210 148 229 341 348 228 215 193 170 275 288 249 286 290 287 286 314 293 295 319 308 280 273 289
45 30 96 128 162 253 117 317 106 89 104 103 141 181 208 185 190 177 190 156 124 117 130 55 71 128 178 118 331 194 322 116 213 113 240 199 225 191 214 184 186 190 156 166 179 163 44 238 320 312 48 141 128 129 104 128 180 228 103 205 207 131 99 92 70 19 93 43 256 144 300 291 298 312 270 297 309 291 327 310 322 299 298 333 290 289 294 285
82 130 94 142 217 189 146 171 119 93 86 116 153 204 194 15 192 167 312 143 190 139 133 133 237 140 177 190 179 194 206 80 176 131 215 147 286 196 211 249 160 168 210 127 269 202 149 230 319 101 210 344 227 83 96 32 143 96 179 232 180 151 116 129 213 355 68 196 266 86 240 299 29 285 322 350 272 280 293 283 298 293 292 286 265 269 291 285
102 83 95 158 224 137 81 216 90 59 87 113 201 169 290 87 216 102 235 90 92 58 126 147 235 101 205 137 218 171 235 154 192 159 179 185 234 181 153 178 202 185 196 272 144 234 121 99 306 341 14 296 348 117 31 349 42 143 197 192 114 233 220 311 88 256 145 273 273 299 270 251 196 244 335 353 201 235 247 268 316 296 302 310 318 321 168 286
106 98 53 272 13 131 130 53 71 82 70 169 215 158 249 155 30 124 326 179 86 124 146 221 129 233 140 186 164 139 158 182 168 187 149 230 200 205 185 154 218 195 185 148 91 144 88 153 283 340 129 306 7 111 199 186 350 50 87 85 102 98 163 129 197 175 125 242 49 289 32 263 181 213 196 224 215 219 231 247 259 253 273 298 296 300 312 322
63 71 298 315 358 110 121 100 91 80 120 204 191 187 219 105 171 313 345 76 22 105 219 143 259 121 162 192 158 165 215 151 164 208 191 211 193 295 184 263 175 182 175 170 131 164 164 129 211 288 292 85 191 208 210 153 147 123 115 195 166 25 227 108 39 133 176 175 182 259 305 268 261 206 178 200 208 215 185 197 223 258 276 272 273 286 290 280
23 97 211 102 157 148 102 91 120 183 185 39 67 138 70 181 182 339 347 40 114 321 155 148 155 155 177 114 256 179 151 152 173 174 189 209 187 212 231 177 145 147 114 77 150 193 109 177 180 131 77 234 245 261 164 178 183 174 170 192 176 132 138 154 255 31 94 124 231 145 259 263 259 178 197 185 214 202 215 178 216 241 273 282 266 257 229 269
110 154 243 150 192 177 143 140 115 12 98 141 184 151 182 128 80 345 7 350 89 98 44 108 346 123 124 133 157 166 141 166 175 180 241 182 216 141 303 43 184 153 141 179 191 227 145 136 106 180 202 206 220 322 298 286 64 184 169 221 176 176 120 141 192 247 29 250 114 179 55 276 199 189 199 204 213 229 209 191 205 264 262 264 278 307 302 239
119 139 328 200 201 199 132 175 90 101 95 218 55 30 58 45 109 212 110 323 56 106 50 50 191 102 260 132 206 148 162 179 166 200 187 196 248 209 210 7 187 159 128 6 44 246 96 91 117 291 316 315 315 311 12 63 125 334 316 108 144 197 181 175 165 181 172 170 162 268 253 263 16 344 285 286 270 248 254 169 202 268 260 279 3 344 313 320
101 126 45 34 41 48 154 191 180 188 152 124 125 133 35 133 116 118 150 184 137 45 130 153 34 35 127 80 108 170 197 163 230 177 286 207 172 116 343 29 175 170 151 218 156 217 156 261 139 128 23 340 343 343 344 325 117 197 176 212 194 147 85 120 101 91 198 212 185 152 232 260 302 322 307 26 57 150 235 257 209 89 40 354 319 312 301 306
113 13 55 352 45 15 183 192 174 150 173 157 150 155 159 120 218 179 135 175 108 149 117 38 179 134 53 123 100 82 26 107 137 303 100 174 184 1 16 42 272 185 64 299 103 187 179 178 141 159 190 196 203 195 213 205 193 227 224 195 193 169 159 121 218 172 216 244 176 198 241 243 353 323 16 52 61 174 247 237 281 268 281 41 329 302 304 329
188 150 276 29 65 50 318 14 128 154 175 166 168 183 160 187 7 168 140 210 175 140 122 141 359 75 118 67 78 97 123 19 107 203 143 190 291 347 266 358 77 147 259 55 36 115 177 176 190 190 197 215 219 220 72 117 118 192 224 189 199 198 185 184 112 162 213 218 164 240 233 257 243 242 205 213 186 188 187 13 255 273 275 268 250 259 259 257
52 111 156 176 51 255 276 88 218 158 185 159 176 160 185 188 149 75 192 149 206 160 89 117 120 84 275 133 194 181 179 89 35 82 223 148 249 232 337 94 67 35 31 108 356 87 74 215 228 213 223 226 223 198 205 161 180 205 201 202 197 182 181 182 185 220 212 196 250 227 230 239 255 211 218 225 232 251 257 254 266 264 261 229 247 268 291 299
113 265 91 251 148 187 178 223 188 146 96 156 206 153 182 174 175 185 158 263 147 163 137 182 169 181 180 186 133 169 188 164 140 194 169 218 95 347 42 5 89 303 9 87 321 146 148 196 253 167 248 239 145 213 177 186 190 199 205 196 194 194 180 191 214 225 193 191 228 240 187 218 249 237 200 220 215 218 244 255 235 261 291 299 295 301 306 309
47 353 215 338 153 298 180 94 161 162 165 170 188 156 176 180 199 191 157 143 121 200 186 185 201 198 197 159 146 182 178 159 241 190 153 164 173 120 79 327 254 36 76 78 42 182 112 240 205 139 227 240 222 197 192 186 211 215 210 207 200 188 195 202 215 220 215 217 233 246 233 225 242 250 175 221 228 206 242 274 348 292 257 256 280 287 296 299
230 138 307 16 61 71 341 119 155 168 190 180 179 211 189 189 201 169 152 154 169 203 190 216 193 187 181 160 176 206 209 212 197 164 213 141 246 181 206 191 153 7 50 128 100 277 157 267 101 98 189 256 238 212 172 201 189 211 227 220 212 207 207 207 213 224 224 243 250 258 263 266 250 170 200 231 186 152 106 211 229 243 256 261 268 275 272 268
81 49 278 115 91 279 30 113 157 170 183 188 204 209 193 202 210 177 201 189 180 164 175 207 191 168 178 175 191 212 211 204 218 197 182 168 202 210 148 259 133 138 107 101 83 331 106 243 73 83 199 271 237 162 182 91 152 231 246 234 220 211 218 219 224 223 206 219 232 241 254 254 250 139 221 143 157 195 223 232 244 250 243 242 244 251 257 260
62 298 62 78 94 268 145 309 96 145 213 203 200 189 187 207 166 151 219 262 225 188 183 197 181 158 179 185 203 212 212 201 206 176 179 201 206 131 161 172 150 138 154 138 8 99 135 136 127 164 210 240 261 165 138 107 54 273 244 232 220 212 218 219 228 226 218 210 220 222 233 242 226 190 244 163 171 206 218 224 241 253 263 232 233 240 241 255